Theta_e
334 334 334 333 333 333 332 330 329 328 327 327 326 325 325 324 320 316 316 315 315 315 315 315 314 314 314 313 314 314 315 315 317 319 319 319 320 320 321 322 322 323
333 333 332 332 332 331 330 328 326 325 325 325 325 324 322 320 316 315 315 315 314 314 314 314 314 314 314 313 313 314 314 314 315 316 315 316 317 316 317 318 318 319
330 330 329 329 328 327 326 324 323 324 324 323 321 319 318 316 315 315 315 315 314 314 314 313 313 314 314 314 314 314 314 315 315 314 314 315 316 316 318 318 318 319
328 327 326 325 324 323 323 322 321 321 321 320 317 316 316 315 315 315 315 315 314 314 314 314 314 315 315 314 314 314 314 314 314 314 315 316 317 318 319 320 320 320
326 325 323 322 322 321 321 321 320 319 317 317 316 315 315 314 314 315 315 315 314 314 314 314 315 315 314 314 314 314 314 314 315 316 317 318 319 318 319 320 320 320
323 322 322 321 321 320 320 319 319 318 316 316 315 315 314 314 314 315 314 314 314 315 315 315 315 314 314 314 314 314 314 315 317 318 319 320 320 319 320 320 319 319
322 321 321 320 320 319 318 317 317 317 316 315 314 314 314 314 313 314 314 314 315 315 315 315 314 314 314 314 315 315 315 316 318 319 320 320 320 320 320 320 319 319
321 320 319 319 318 317 316 316 315 315 315 314 313 314 314 314 314 314 314 315 315 315 315 314 314 314 314 314 314 315 315 316 317 318 317 317 318 319 319 320 320 320
319 318 317 317 316 315 315 315 314 314 314 313 313 313 313 314 315 315 315 315 315 314 314 314 314 313 313 313 313 313 314 314 315 315 315 314 315 316 317 317 317 317
317 316 315 315 314 314 314 314 313 313 313 313 313 313 314 314 314 314 314 314 314 314 314 314 313 313 313 312 312 312 313 313 314 314 313 313 313 313 313 314 314 313
315 314 313 313 313 313 313 313 313 313 313 313 313 313 314 313 313 314 314 314 314 313 313 313 313 312 312 311 312 312 312 313 313 312 312 312 311 311 312 312 312 312
314 312 312 312 312 312 312 312 312 312 312 312 313 313 313 313 313 313 313 313 313 313 312 312 312 311 311 311 311 311 312 312 312 311 311 311 311 311 310 311 311 311
312 311 312 311 311 312 312 312 312 312 312 312 312 313 313 313 313 312 312 312 312 312 311 310 310 310 310 309 310 310 311 311 311 310 310 309 310 310 309 309 310 310
311 311 312 311 311 311 311 312 311 311 311 312 312 312 312 312 312 311 311 311 310 310 309 309 309 308 308 308 309 310 310 310 310 309 309 309 309 308 308 308 309 309
311 311 311 311 312 312 311 311 311 311 311 311 311 311 312 312 311 310 310 309 309 309 308 308 307 307 308 308 309 309 309 309 309 308 308 308 308 307 307 307 307 307
310 311 311 311 311 311 311 311 311 311 311 310 310 310 311 311 310 309 309 308 308 308 307 307 307 307 308 308 309 309 309 309 308 308 307 307 307 307 307 305 305 305
310 311 311 311 311 311 311 311 310 310 310 310 309 309 309 309 309 309 308 307 306 306 306 306 307 307 308 308 308 308 308 308 308 307 307 306 306 305 304 303 302 303
311 311 311 311 311 311 311 310 310 310 310 309 308 308 308 308 308 308 308 306 305 305 305 305 306 306 307 307 307 307 307 307 307 306 305 304 304 303 302 300 300 301
311 311 311 311 311 310 310 310 310 310 309 309 308 308 307 307 307 307 307 305 303 303 304 304 304 305 305 306 307 306 306 307 306 305 304 303 303 302 301 300 299 299
311 311 311 310 310 310 310 310 309 309 309 308 308 308 307 307 307 306 305 303 302 301 302 302 302 303 304 306 306 306 306 306 305 304 303 302 302 302 301 300 299 298
311 310 310 310 309 309 309 309 309 309 308 308 308 307 307 306 306 306 303 300 299 299 299 299 300 301 304 306 306 306 306 305 304 303 303 302 302 302 301 299 298 297
310 310 310 309 309 309 308 308 308 308 307 307 306 306 306 306 306 304 301 298 297 297 297 298 298 299 302 305 305 305 305 304 302 303 303 302 302 302 301 299 297 297
310 309 309 309 308 308 308 308 307 307 306 305 304 302 302 302 302 300 298 297 296 296 296 297 297 297 300 303 305 305 304 303 302 302 302 302 302 301 300 299 297 296
309 309 309 308 308 308 308 307 307 306 306 306 304 300 298 298 297 297 296 296 296 296 296 296 296 296 297 300 302 303 303 303 303 302 302 302 301 301 300 300 298 297
309 308 308 308 308 307 307 306 306 305 305 305 305 303 301 299 297 296 295 295 295 295 295 295 295 295 296 297 298 299 299 301 302 301 301 301 300 300 299 299 298 297
308 308 308 308 307 307 306 306 305 305 305 305 305 305 304 303 300 298 295 295 295 295 295 294 294 294 295 295 296 296 296 297 298 299 300 300 299 298 298 297 297 297
Wind_Speed
14 13 14 14 14 14 14 13 11 9 9 10 8 9 12 13 8 3 1 2 2 3 3 4 4 4 4 5 5 5 6 7 7 8 10 11 12 14 15 16 17 18
15 15 15 17 17 17 17 14 10 7 9 12 14 14 13 9 4 1 1 1 1 2 2 2 3 3 4 5 5 5 5 6 7 9 10 11 12 14 15 16 18 17
14 14 14 16 17 16 14 11 10 10 12 13 13 10 6 3 1 0 0 0 1 2 2 3 3 4 4 5 5 6 6 7 8 10 11 11 12 13 14 15 16 16
12 12 11 10 10 10 9 8 9 11 11 10 7 4 2 2 1 1 1 2 2 3 4 4 5 6 7 7 8 8 8 9 10 11 12 12 13 14 15 15 16 16
8 7 7 7 8 9 10 9 8 7 7 6 4 4 2 2 1 1 2 3 3 4 5 6 6 7 8 8 9 9 9 9 10 11 12 13 14 15 16 16 16 16
11 10 9 8 10 10 9 8 6 4 4 4 5 4 3 3 2 1 2 2 3 4 5 6 7 7 8 9 9 9 9 10 11 11 12 12 13 14 15 16 16 17
14 13 11 10 11 10 9 8 7 6 4 5 6 5 4 3 2 2 3 3 4 5 6 7 7 8 9 9 9 9 10 10 10 10 11 11 12 12 14 15 16 16
16 14 13 12 12 10 8 7 7 7 5 5 5 5 4 4 4 4 6 6 7 7 7 8 8 9 9 9 10 10 9 9 9 10 11 11 11 12 13 14 14 14
15 15 14 14 12 10 9 7 7 7 5 6 5 4 5 6 6 7 8 8 8 7 8 8 9 9 10 10 10 9 9 9 10 10 11 12 12 12 13 15 15 16
14 13 13 12 11 10 10 8 7 7 6 6 5 5 6 7 8 10 9 7 8 8 8 8 8 9 9 9 9 9 9 9 10 10 10 12 12 13 15 16 17 18
14 13 13 12 11 10 9 8 8 8 7 6 6 7 8 8 10 10 7 6 8 8 7 7 7 8 8 8 8 9 9 9 10 11 12 13 14 14 14 13 15 18
14 14 13 12 11 10 9 8 9 9 8 8 8 10 11 11 10 9 6 6 9 8 6 7 7 7 8 8 9 9 10 10 11 13 14 14 15 15 14 13 14 17
14 14 13 12 11 10 9 10 11 10 10 10 12 13 13 12 10 7 5 6 8 7 6 7 7 8 8 9 10 10 10 11 12 13 13 13 13 13 13 13 14 15
14 14 13 12 11 11 11 11 11 11 11 12 13 13 13 12 10 7 5 6 8 7 7 7 7 8 9 9 11 11 11 11 11 12 12 13 12 12 12 12 11 11
15 14 13 13 12 13 12 12 12 12 12 12 12 13 12 11 11 8 6 7 8 8 8 8 8 9 10 11 12 12 11 11 11 11 12 13 12 12 13 14 14 13
16 14 13 13 13 13 12 12 13 13 12 11 12 13 12 10 9 8 7 7 8 8 8 8 9 10 11 12 12 12 12 11 11 12 11 12 13 13 15 18 19 18
15 14 13 14 13 12 12 12 12 12 11 11 11 12 11 10 10 9 8 7 9 9 9 9 10 10 11 12 11 12 11 10 10 10 11 13 15 15 18 23 23 22
15 14 15 15 14 13 13 13 12 12 11 10 10 11 11 10 11 10 8 8 10 10 10 10 10 10 11 11 11 12 11 10 10 12 13 14 16 17 22 27 27 26
16 16 16 15 14 14 13 13 13 12 12 11 11 10 10 10 11 11 8 9 10 11 11 11 11 11 11 11 13 13 12 11 13 15 16 17 17 19 23 28 30 30
17 17 16 14 14 14 14 14 13 12 13 13 12 11 10 11 12 11 9 9 11 12 13 13 13 12 11 12 13 14 13 13 14 15 17 18 17 18 23 28 30 31
16 16 16 15 15 14 14 14 14 14 13 11 11 11 11 12 11 9 8 11 14 14 15 15 15 13 12 12 13 14 13 13 14 15 17 19 18 17 21 26 29 29
16 16 16 16 15 14 14 15 15 14 12 10 11 12 12 12 11 9 10 14 15 16 16 17 16 14 12 12 12 12 11 13 15 16 16 19 19 17 20 25 27 28
15 15 16 16 15 15 15 15 14 13 12 12 12 13 13 14 13 12 13 15 16 16 17 17 17 16 14 12 11 11 12 14 16 17 16 16 18 18 19 22 25 28
16 16 16 15 15 16 15 14 14 14 14 13 13 15 15 16 16 14 14 15 15 16 16 16 18 18 16 13 11 11 13 12 12 15 16 15 15 16 17 19 22 26
17 16 16 16 16 16 15 15 15 16 15 13 12 13 13 13 14 15 16 15 15 15 15 16 17 18 18 16 14 12 13 13 13 15 16 16 15 15 16 17 19 23
17 17 17 16 16 17 16 16 15 15 14 13 11 11 10 10 11 14 16 16 16 15 15 16 16 16 17 17 16 15 15 15 16 17 17 16 15 15 17 18 20 23
Wind_Direction
168 170 178 186 189 199 215 215 215 223 204 187 195 216 234 251 265 270 283 299 311 317 325 327 325 334 336 325 328 323 305 301 292 277 278 282 283 282 282 283 283 281
179 184 192 200 205 212 219 210 189 197 212 204 204 216 231 246 264 336 354 321 339 330 329 341 348 351 345 340 343 333 319 313 302 297 301 304 302 298 294 292 291 288
190 195 202 208 210 211 212 203 184 193 216 222 217 218 225 225 220 353 346 345 349 335 357 20 11 7 5 356 352 347 343 337 327 327 330 327 323 320 317 310 306 302
192 194 195 194 188 177 174 184 198 204 211 221 215 189 173 176 156 6 6 15 14 10 21 27 21 21 17 7 3 358 354 353 346 342 343 344 344 340 336 331 325 322
165 159 160 156 151 157 169 181 201 205 193 188 172 149 157 150 112 49 32 27 29 31 30 30 28 28 24 15 12 7 2 2 359 356 358 359 358 354 351 348 344 343
131 134 138 146 156 165 166 161 168 177 169 164 152 146 151 136 117 77 62 53 47 48 41 36 33 30 28 23 19 14 9 7 6 4 3 3 2 0 358 356 355 357
144 151 151 158 169 169 159 152 153 154 168 177 156 144 146 139 121 99 87 74 64 61 52 44 38 34 35 31 24 19 14 9 7 4 3 2 359 358 359 356 353 353
159 159 157 167 173 165 150 143 144 149 164 165 146 138 140 121 97 91 85 73 68 68 64 56 46 41 39 32 24 20 16 13 9 6 6 1 358 360 1 356 350 348
166 167 167 171 168 153 138 131 134 140 141 134 132 136 128 110 90 80 76 74 75 74 70 61 51 44 35 26 22 15 11 14 12 11 11 2 1 5 4 0 356 351
158 161 159 157 154 146 136 133 132 129 122 124 130 128 116 102 83 69 62 72 86 80 70 62 50 40 29 23 19 10 8 14 11 8 9 5 8 11 7 6 2 353
149 147 142 140 141 139 134 133 131 123 115 111 110 102 92 85 80 71 61 73 87 79 67 58 45 34 28 21 17 12 11 14 11 7 7 10 16 14 5 4 2 356
142 138 135 137 137 134 134 133 124 115 106 98 92 85 76 71 73 72 72 88 89 80 65 54 42 36 31 24 22 18 12 14 16 13 12 16 20 11 3 10 13 4
140 137 135 135 134 131 130 128 123 116 106 95 88 84 79 73 67 59 66 89 87 78 67 56 47 42 33 25 24 18 13 19 20 17 17 20 21 13 9 22 26 12
136 135 132 129 127 124 118 117 115 107 98 95 93 93 90 83 73 56 54 82 82 73 64 52 43 39 32 27 26 19 19 25 18 15 22 20 17 17 15 20 23 12
131 127 127 126 123 118 114 109 105 100 97 99 99 97 94 87 78 66 59 74 73 63 56 44 37 37 33 31 28 21 24 30 18 12 21 20 13 14 14 13 9 1
126 123 121 119 114 111 111 107 104 104 103 100 97 95 95 92 83 72 65 69 65 53 47 42 37 40 37 32 30 25 25 32 22 11 13 13 8 6 10 13 10 5
122 120 113 109 106 104 103 100 100 101 99 98 99 97 96 93 82 69 56 55 58 50 45 43 39 41 41 36 35 30 24 30 26 9 5 9 10 12 18 21 18 16
116 113 107 106 106 104 103 101 99 98 95 95 94 92 93 91 85 77 59 49 53 51 48 46 42 41 41 39 39 35 30 31 18 5 7 15 17 23 27 25 21 20
114 112 112 111 111 109 107 104 100 97 92 85 80 79 83 87 87 82 66 50 52 54 52 51 49 47 47 47 45 41 38 30 13 9 17 23 27 30 28 23 20 21
113 113 112 110 107 104 102 100 97 93 87 82 78 73 70 74 78 75 68 62 62 62 60 58 56 56 59 59 53 46 39 25 17 23 28 29 32 29 23 21 20 23
116 117 115 113 112 110 108 108 106 100 96 100 102 95 87 84 81 77 77 75 70 67 65 62 60 62 70 72 64 57 46 26 26 37 36 35 35 26 20 22 23 24
123 123 121 118 117 116 113 111 112 114 120 128 123 114 113 114 110 105 96 85 77 69 65 64 63 65 76 84 78 72 60 41 43 50 42 36 35 26 22 25 25 28
128 126 123 121 120 118 114 111 116 120 119 114 106 103 111 116 114 107 96 87 79 72 66 66 66 67 76 89 93 87 72 52 48 50 45 39 34 27 23 23 27 33
131 127 125 125 123 120 120 122 126 121 111 107 103 99 100 103 102 98 91 84 78 74 69 68 69 69 72 81 90 91 84 75 62 54 48 43 37 30 24 21 23 30
133 131 128 128 126 127 130 130 124 115 108 108 107 99 96 96 94 91 86 81 77 76 74 71 70 71 72 74 77 79 82 90 89 74 57 46 39 34 29 25 22 25
134 131 130 130 131 132 130 123 115 110 106 109 112 112 112 106 94 86 83 80 77 74 72 71 71 72 72 71 71 70 71 78 83 79 65 49 41 36 31 29 27 27